STARLINK-5967 (56330 NORAD) Tracking and Keplerian Element Data

This shows tracking and keplerian element data for the satellite.

Feedback or suggestion? Click here.




ElementValue
Catalog56330
NameSTARLINK-5967
Epoch Orbit179
Epoch Day126.91667824
Epoch Year2023
RAAN126.3813
Inclination97.663
Eccentricity0.0001582
Argument of Perigee95.5735
Mean Anonmoly120.2959
Mean Motion15.68155067
Decay Rate-0.00798379
L11 56330U 23058P 23126.91667824 -.00798379 00000+0 -79022-2 0 9998
L22 56330 97.6630 126.3813 0001582 95.5735 120.2959 15.68155067 1793



Live tracking and technical data element details for STARLINK-5967 (NORAD 56330). STARLINK-5967 can be tracked NOW for your location showing map with azimuth and elevation plus other details from your city location.







IsCatalogInMostPopularTable: catalog: 56330, numindb: 5
Update: records affected: 1



GetName: 56330 STARLINK-5967

Hit Count: updated at: Wed, 07 Jun 2023 08:17:27 GMT